Location: Unspecified
(0.0000°N, 0.0000°E)
Time: 17:51:59
(UTC+00:00)

Explorer 11/Cluster Stage 4 - All Passes

Search period start: 18 June 2019 00:00
Search period end: 28 June 2019 00:00
Orbit: 467 x 1260 km, 28.8° (Epoch: 17 June)

Date Brightness Start Highest point End Pass type
(mag) Time Alt. Az. Time Alt. Az. Time Alt. Az.
18 Jun - 00:50:48 10° WNW 00:58:44 50° SSW 01:06:15 10° SE night (unlit)
18 Jun - 02:43:53 10° WSW 02:48:26 16° SSW 02:52:41 10° S night (unlit)
18 Jun - 10:07:50 10° S 10:10:10 15° SSE 10:12:24 10° ESE daylight
18 Jun - 11:54:51 10° WSW 11:58:28 65° NNW 12:02:06 10° NE daylight
18 Jun - 21:03:24 10° NNW 21:08:49 22° NNE 21:14:43 10° ENE visible
18 Jun - 22:50:34 10° NW 22:58:23 67° NNE 23:06:36 10° ESE visible
19 Jun - 00:40:16 10° W 00:47:58 43° SSW 00:55:25 10° SE night (unlit)
19 Jun - 02:33:56 10° SW 02:37:51 14° SSW 02:41:36 10° S night (unlit)
19 Jun - 09:56:44 10° SSW 09:59:48 20° SSE 10:02:37 10° ESE daylight
19 Jun - 11:44:29 10° WSW 11:48:02 46° NNW 11:51:32 10° NE daylight
19 Jun - 20:52:30 10° NNW 20:58:10 25° NNE 21:04:25 10° E visible
19 Jun - 22:39:51 10° NW 22:47:36 77° NNE 22:55:55 10° ESE visible
20 Jun - 00:29:48 10° W 00:37:14 37° SSW 00:44:32 10° SE night (unlit)
20 Jun - 02:24:08 10° SW 02:27:18 13° SSW 02:30:22 10° S night (unlit)
20 Jun - 09:45:45 10° SSW 09:49:24 27° SSE 09:52:39 10° E daylight
20 Jun - 11:34:11 10° W 11:37:37 33° NNW 11:40:54 10° NE daylight
20 Jun - 20:41:40 10° NNW 20:47:28 28° NNE 20:54:02 10° E visible
20 Jun - 22:29:12 10° WNW 22:36:49 89° NNE 22:45:09 10° ESE visible
21 Jun - 00:19:26 10° W 00:26:30 32° SSW 00:33:36 10° SSE night (unlit)
21 Jun - 02:14:41 10° SW 02:16:48 11° SSW 02:18:54 10° S night (unlit)
21 Jun - 09:34:52 10° SW 09:39:00 37° SSE 09:42:34 10° E daylight
21 Jun - 11:23:57 10° W 11:27:10 25° NNW 11:30:13 10° NNE daylight
21 Jun - 20:30:54 10° NNW 20:36:47 32° NNE 20:43:35 10° E visible
21 Jun - 22:18:37 10° WNW 22:26:02 80° SSW 22:34:21 10° SE visible
22 Jun - 00:09:10 10° W 00:15:49 28° SSW 00:22:36 10° SSE night (unlit)
22 Jun - 07:37:34 10° S 07:39:30 12° SSE 07:41:19 10° SE daylight
22 Jun - 09:24:03 10° SW 09:28:34 50° SSE 09:32:23 10° ENE daylight
22 Jun - 11:13:49 10° W 11:16:44 20° NNW 11:19:27 10° NNE daylight
22 Jun - 20:20:11 10° NW 20:26:05 37° NNE 20:33:02 10° E visible
22 Jun - 22:08:06 10° WNW 22:15:17 68° SSW 22:23:28 10° SE visible
22 Jun - 23:58:59 10° WSW 00:05:10 24° SSW 00:11:31 10° SSE night (unlit)
23 Jun - 07:25:49 10° SSW 07:29:08 16° SSE 07:32:04 10° ESE daylight
23 Jun - 09:13:15 10° SW 09:18:08 69° SSE 09:22:07 10° ENE daylight
23 Jun - 11:03:48 10° WNW 11:06:15 16° NNW 11:08:35 10° N daylight
23 Jun - 20:09:30 10° NW 20:15:23 43° NNE 20:22:26 10° ESE visible
23 Jun - 21:57:40 10° WNW 22:04:33 58° SSW 22:12:32 10° SE visible
23 Jun - 23:48:55 10° WSW 23:54:32 21° SSW 00:00:23 10° SSE night (unlit)
24 Jun - 07:14:26 10° SSW 07:18:44 20° SSE 07:22:25 10° ESE daylight
24 Jun - 09:02:31 10° WSW 09:07:40 90° NW 09:11:48 10° ENE daylight
24 Jun - 10:53:58 10° WNW 10:55:48 13° NNW 10:57:32 10° N daylight
24 Jun - 18:14:10 10° NNE 18:15:55 11° NNE 18:17:45 10° NE daylight
24 Jun - 19:58:54 10° NW 20:04:41 50° NNE 20:11:47 10° ESE visible
24 Jun - 21:47:18 10° WNW 21:53:52 49° SSW 22:01:33 10° SE visible
24 Jun - 23:38:59 10° WSW 23:43:57 18° SSW 23:49:10 10° SSE night (unlit)
25 Jun - 07:03:12 10° SSW 07:08:18 26° SSE 07:12:33 10° E daylight
25 Jun - 08:51:49 10° WSW 08:57:09 70° NNW 09:01:25 10° NE daylight
25 Jun - 10:44:49 10° NW 10:45:19 10° NNW 10:45:50 10° NNW daylight
25 Jun - 18:02:58 10° N 18:05:23 13° NNE 18:08:02 10° ENE daylight
25 Jun - 19:48:21 10° NW 19:54:00 60° NNE 20:01:05 10° ESE visible
25 Jun - 21:37:01 10° W 21:43:13 40° SSW 21:50:31 10° SE visible
25 Jun - 23:29:14 10° SW 23:33:26 15° SSW 23:37:49 10° SSE night (unlit)
26 Jun - 05:05:36 10° S 05:07:50 11° SSE 05:09:57 10° SE visible
26 Jun - 06:52:04 10° SW 06:57:49 32° SSE 07:02:32 10° E daylight
26 Jun - 08:41:09 10° WSW 08:46:37 55° NNW 08:50:58 10° NE daylight
26 Jun - 17:51:59 10° N 17:54:51 15° NNE 17:58:02 10° ENE daylight
26 Jun - 19:37:50 10° NW 19:43:20 72° NNE 19:50:18 10° ESE visible
26 Jun - 21:26:49 10° W 21:32:36 34° SSW 21:39:25 10° SE visible
26 Jun - 23:19:44 10° SW 23:22:56 13° SSW 23:26:17 10° S night (unlit)
27 Jun - 04:53:42 10° SSW 04:57:24 14° SSE 05:00:50 10° SE visible
27 Jun - 06:40:59 10° SW 06:47:19 41° SSE 06:52:25 10° E daylight
27 Jun - 08:30:32 10° WSW 08:36:03 44° NNW 08:40:29 10° NE daylight
27 Jun - 17:41:08 10° N 17:44:18 17° NNE 17:47:54 10° ENE daylight
27 Jun - 19:27:24 10° WNW 19:32:43 86° NNE 19:39:30 10° ESE visible
27 Jun - 21:16:43 10° W 21:22:03 28° SSW 21:28:16 10° SSE visible
27 Jun - 23:10:47 10° SSW 23:12:30 11° SSW 23:14:14 10° S night (unlit)
